Location: Izdebno
(52.6670°N, 16.2170°E)
Time: 03:01:41
(UTC+02:00)

Transit 4A - Pass Details

Date: 27 February 2024
Orbit: 871 x 972 km, 66.8° (Epoch: 22 April)

Event Time Altitude Azimuth Distance (km) Brightness Sun altitude
Rises 01:39:17 0° 220° (SW) 3,596 - -42.2°
Reaches altitude 10° 01:41:51 10° 221° (SW) 2,640 - -42.0°
Maximum altitude 01:48:00 82° 309° (NW) 931 - -41.5°
Exits shadow 01:51:41 25° 37° (NE) 1,745 9.7 -41.2°
Drops below altitude 10° 01:54:01 10° 39° (NE) 2,583 10.9 -41.0°
Sets 01:56:30 0° 40° (NE) 3,514 11.8 -40.7°
